Find WorldView Legion 6

NORAD ID: 62901 Int'l Des: 2025-025 Owner: MAXARI Country: US operational
LEOCIRCULAR

实时位置

正在加载3D地球...

关于 WorldView Legion 6

正在加载描述...

即将过境

Passes for default location (London). Set your location on the main map for personalized predictions.

高度历史

Loading altitude history...

两行轨道根数

1 62901U 25025B 26104.53110969 .00001792 00000-0 10659-3 0 9992
2 62901 45.0010 191.7821 0006343 127.0387 233.1072 15.15528079 65971
Epoch: Apr 14, 2026 • Age: 7 hours

当前状态

高度 517.0 km
速度 7.61 km/s
星下点 -1.50°S, 129.42°W
发射日期 Feb 4, 2025
运行时间 1.1 years
类型 earth observation

技术详情

分类 Payload
质量 700.00 kg
干质量 630.00 kg
总质量 700.00 kg
长度 3.00 m
直径 2.00 m
跨度 5.00 m
形状 Box + panel
制造商 MAXSI
平台类型 Legion
阶段状态 In Orbit
所有者/国家 MAXARI/US

Most Searched